Year,Month,Day,Hour,Minute,Value (Times are PST for insolation in W/m^2)
2016,03,27,00,00,0.00
2016,03,27,00,01,0.00
2016,03,27,00,02,0.00
2016,03,27,00,03,0.00
2016,03,27,00,04,0.00
2016,03,27,00,05,0.00
2016,03,27,00,06,0.00
2016,03,27,00,07,0.00
2016,03,27,00,08,0.00
2016,03,27,00,09,0.00
2016,03,27,00,10,0.00
2016,03,27,00,11,0.00
2016,03,27,00,12,0.00
2016,03,27,00,13,0.00
2016,03,27,00,14,0.00
2016,03,27,00,15,0.00
2016,03,27,00,16,0.00
2016,03,27,00,17,0.00
2016,03,27,00,18,0.00
2016,03,27,00,19,0.00
2016,03,27,00,20,0.00
2016,03,27,00,21,0.00
2016,03,27,00,22,0.00
2016,03,27,00,23,0.00
2016,03,27,00,24,0.00
2016,03,27,00,25,0.00
2016,03,27,00,26,0.00
2016,03,27,00,27,0.00
2016,03,27,00,28,0.00
2016,03,27,00,29,0.00
2016,03,27,00,30,0.00
2016,03,27,00,31,0.00
2016,03,27,00,32,0.00
2016,03,27,00,33,0.00
2016,03,27,00,34,0.00
2016,03,27,00,35,0.00
2016,03,27,00,36,0.00
2016,03,27,00,37,0.00
2016,03,27,00,38,0.00
2016,03,27,00,39,0.00
2016,03,27,00,40,0.00
2016,03,27,00,41,0.00
2016,03,27,00,42,0.00
2016,03,27,00,43,0.00
2016,03,27,00,44,0.00
2016,03,27,00,45,0.00
2016,03,27,00,46,0.00
2016,03,27,00,47,0.00
2016,03,27,00,48,0.00
2016,03,27,00,49,0.00
2016,03,27,00,50,0.00
2016,03,27,00,51,0.00
2016,03,27,00,52,0.00
2016,03,27,00,53,0.00
2016,03,27,00,54,0.00
2016,03,27,00,55,0.00
2016,03,27,00,56,0.00
2016,03,27,00,57,0.00
2016,03,27,00,58,0.00
2016,03,27,00,59,0.00
2016,03,27,01,00,0.00
2016,03,27,01,01,0.00
2016,03,27,01,02,0.00
2016,03,27,01,03,0.00
2016,03,27,01,04,0.00
2016,03,27,01,05,0.00
2016,03,27,01,06,0.00
2016,03,27,01,07,0.00
2016,03,27,01,08,0.00
2016,03,27,01,09,0.00
2016,03,27,01,10,0.00
2016,03,27,01,11,0.00
2016,03,27,01,12,0.00
2016,03,27,01,13,0.00
2016,03,27,01,14,0.00
2016,03,27,01,15,0.00
2016,03,27,01,16,0.00
2016,03,27,01,17,0.00
2016,03,27,01,18,0.00
2016,03,27,01,19,0.00
2016,03,27,01,20,0.00
2016,03,27,01,21,0.00
2016,03,27,01,22,0.00
2016,03,27,01,23,0.00
2016,03,27,01,24,0.00
2016,03,27,01,25,0.00
2016,03,27,01,26,0.00
2016,03,27,01,27,0.00
2016,03,27,01,28,0.00
2016,03,27,01,29,0.00
2016,03,27,01,30,0.00
2016,03,27,01,31,0.00
2016,03,27,01,32,0.00
2016,03,27,01,33,0.00
2016,03,27,01,34,0.00
2016,03,27,01,35,0.00
2016,03,27,01,36,0.00
2016,03,27,01,37,0.00
2016,03,27,01,38,0.00
2016,03,27,01,39,0.00
2016,03,27,01,40,0.00
2016,03,27,01,41,0.00
2016,03,27,01,42,0.00
2016,03,27,01,43,0.00
2016,03,27,01,44,0.00
2016,03,27,01,45,0.00
2016,03,27,01,46,0.00
2016,03,27,01,47,0.00
2016,03,27,01,48,0.00
2016,03,27,01,49,0.00
2016,03,27,01,50,0.00
2016,03,27,01,51,0.00
2016,03,27,01,52,0.00
2016,03,27,01,53,0.00
2016,03,27,01,54,0.00
2016,03,27,01,55,0.00
2016,03,27,01,56,0.00
2016,03,27,01,57,0.00
2016,03,27,01,58,0.00
2016,03,27,01,59,0.00
2016,03,27,02,00,0.00
2016,03,27,02,01,0.00
2016,03,27,02,02,0.00
2016,03,27,02,03,0.00
2016,03,27,02,04,0.00
2016,03,27,02,05,0.00
2016,03,27,02,06,0.00
2016,03,27,02,07,0.00
2016,03,27,02,08,0.00
2016,03,27,02,09,0.00
2016,03,27,02,10,0.00
2016,03,27,02,11,0.00
2016,03,27,02,12,0.00
2016,03,27,02,13,0.00
2016,03,27,02,14,0.00
2016,03,27,02,15,0.00
2016,03,27,02,16,0.00
2016,03,27,02,17,0.00
2016,03,27,02,18,0.00
2016,03,27,02,19,0.00
2016,03,27,02,20,0.00
2016,03,27,02,21,0.00
2016,03,27,02,22,0.00
2016,03,27,02,23,0.00
2016,03,27,02,24,0.00
2016,03,27,02,25,0.00
2016,03,27,02,26,0.00
2016,03,27,02,27,0.00
2016,03,27,02,28,0.00
2016,03,27,02,29,0.00
2016,03,27,02,30,0.00
2016,03,27,02,31,0.00
2016,03,27,02,32,0.00
2016,03,27,02,33,0.00
2016,03,27,02,34,0.00
2016,03,27,02,35,0.00
2016,03,27,02,36,0.00
2016,03,27,02,37,0.00
2016,03,27,02,38,0.00
2016,03,27,02,39,0.00
2016,03,27,02,40,0.00
2016,03,27,02,41,0.00
2016,03,27,02,42,0.00
2016,03,27,02,43,0.00
2016,03,27,02,44,0.00
2016,03,27,02,45,0.00
2016,03,27,02,46,0.00
2016,03,27,02,47,0.00
2016,03,27,02,48,0.00
2016,03,27,02,49,0.00
2016,03,27,02,50,0.00
2016,03,27,02,51,0.00
2016,03,27,02,52,0.00
2016,03,27,02,53,0.00
2016,03,27,02,54,0.00
2016,03,27,02,55,0.00
2016,03,27,02,56,0.00
2016,03,27,02,57,0.00
2016,03,27,02,58,0.00
2016,03,27,02,59,0.00
2016,03,27,03,00,0.00
2016,03,27,03,01,0.00
2016,03,27,03,02,0.00
2016,03,27,03,03,0.00
2016,03,27,03,04,0.00
2016,03,27,03,05,0.00
2016,03,27,03,06,0.00
2016,03,27,03,07,0.00
2016,03,27,03,08,0.00
2016,03,27,03,09,0.00
2016,03,27,03,10,0.00
2016,03,27,03,11,0.00
2016,03,27,03,12,0.00
2016,03,27,03,13,0.00
2016,03,27,03,14,0.00
2016,03,27,03,15,0.00
2016,03,27,03,16,0.00
2016,03,27,03,17,0.00
2016,03,27,03,18,0.00
2016,03,27,03,19,0.00
2016,03,27,03,20,0.00
2016,03,27,03,21,0.00
2016,03,27,03,22,0.00
2016,03,27,03,23,0.00
2016,03,27,03,24,0.00
2016,03,27,03,25,0.00
2016,03,27,03,26,0.00
2016,03,27,03,27,0.00
2016,03,27,03,28,0.00
2016,03,27,03,29,0.00
2016,03,27,03,30,0.00
2016,03,27,03,31,0.00
2016,03,27,03,32,0.00
2016,03,27,03,33,0.00
2016,03,27,03,34,0.00
2016,03,27,03,35,0.00
2016,03,27,03,36,0.00
2016,03,27,03,37,0.00
2016,03,27,03,38,0.00
2016,03,27,03,39,0.00
2016,03,27,03,40,0.00
2016,03,27,03,41,0.00
2016,03,27,03,42,0.00
2016,03,27,03,43,0.00
2016,03,27,03,44,0.00
2016,03,27,03,45,0.00
2016,03,27,03,46,0.00
2016,03,27,03,47,0.00
2016,03,27,03,48,0.00
2016,03,27,03,49,0.00
2016,03,27,03,50,0.00
2016,03,27,03,51,0.00
2016,03,27,03,52,0.00
2016,03,27,03,53,0.00
2016,03,27,03,54,0.00
2016,03,27,03,55,0.00
2016,03,27,03,56,0.00
2016,03,27,03,57,0.00
2016,03,27,03,58,0.00
2016,03,27,03,59,0.00
2016,03,27,04,00,0.00
2016,03,27,04,01,0.00
2016,03,27,04,02,0.00
2016,03,27,04,03,0.00
2016,03,27,04,04,0.00
2016,03,27,04,05,0.00
2016,03,27,04,06,0.00
2016,03,27,04,07,0.00
2016,03,27,04,08,0.00
2016,03,27,04,09,0.00
2016,03,27,04,10,0.00
2016,03,27,04,11,0.00
2016,03,27,04,12,0.00
2016,03,27,04,13,0.00
2016,03,27,04,14,0.00
2016,03,27,04,15,0.00
2016,03,27,04,16,0.00
2016,03,27,04,17,0.00
2016,03,27,04,18,0.00
2016,03,27,04,19,0.00
2016,03,27,04,20,0.00
2016,03,27,04,21,0.00
2016,03,27,04,22,0.00
2016,03,27,04,23,0.00
2016,03,27,04,24,0.00
2016,03,27,04,25,0.00
2016,03,27,04,26,0.00
2016,03,27,04,27,0.00
2016,03,27,04,28,0.00
2016,03,27,04,29,0.00
2016,03,27,04,30,0.00
2016,03,27,04,31,0.00
2016,03,27,04,32,0.00
2016,03,27,04,33,0.00
2016,03,27,04,34,0.00
2016,03,27,04,35,0.00
2016,03,27,04,36,0.00
2016,03,27,04,37,0.00
2016,03,27,04,38,0.00
2016,03,27,04,39,0.00
2016,03,27,04,40,0.00
2016,03,27,04,41,0.00
2016,03,27,04,42,0.00
2016,03,27,04,43,0.00
2016,03,27,04,44,0.00
2016,03,27,04,45,0.00
2016,03,27,04,46,0.00
2016,03,27,04,47,0.00
2016,03,27,04,48,0.00
2016,03,27,04,49,0.00
2016,03,27,04,50,0.00
2016,03,27,04,51,0.00
2016,03,27,04,52,0.00
2016,03,27,04,53,0.00
2016,03,27,04,54,0.00
2016,03,27,04,55,0.00
2016,03,27,04,56,0.00
2016,03,27,04,57,0.00
2016,03,27,04,58,0.00
2016,03,27,04,59,0.00
2016,03,27,05,00,0.00
2016,03,27,05,01,0.00
2016,03,27,05,02,0.00
2016,03,27,05,03,0.00
2016,03,27,05,04,0.00
2016,03,27,05,05,0.00
2016,03,27,05,06,0.00
2016,03,27,05,07,0.00
2016,03,27,05,08,0.00
2016,03,27,05,09,0.00
2016,03,27,05,10,0.00
2016,03,27,05,11,0.00
2016,03,27,05,12,0.00
2016,03,27,05,13,0.00
2016,03,27,05,14,0.00
2016,03,27,05,15,0.00
2016,03,27,05,16,0.00
2016,03,27,05,17,0.00
2016,03,27,05,18,0.00
2016,03,27,05,19,0.00
2016,03,27,05,20,0.00
2016,03,27,05,21,0.00
2016,03,27,05,22,0.00
2016,03,27,05,23,0.00
2016,03,27,05,24,0.00
2016,03,27,05,25,0.00
2016,03,27,05,26,0.00
2016,03,27,05,27,0.00
2016,03,27,05,28,0.00
2016,03,27,05,29,0.00
2016,03,27,05,30,0.00
2016,03,27,05,31,0.00
2016,03,27,05,32,0.00
2016,03,27,05,33,0.00
2016,03,27,05,34,0.00
2016,03,27,05,35,0.00
2016,03,27,05,36,0.00
2016,03,27,05,37,0.00
2016,03,27,05,38,0.00
2016,03,27,05,39,0.00
2016,03,27,05,40,0.00
2016,03,27,05,41,0.00
2016,03,27,05,42,0.00
2016,03,27,05,43,0.00
2016,03,27,05,44,0.00
2016,03,27,05,45,0.00
2016,03,27,05,46,0.00
2016,03,27,05,47,0.00
2016,03,27,05,48,0.00
2016,03,27,05,49,0.00
2016,03,27,05,50,0.00
2016,03,27,05,51,0.00
2016,03,27,05,52,0.00
2016,03,27,05,53,0.00
2016,03,27,05,54,0.00
2016,03,27,05,55,0.00
2016,03,27,05,56,0.00
2016,03,27,05,57,0.00
2016,03,27,05,58,0.00
2016,03,27,05,59,0.00
2016,03,27,06,00,0.00
2016,03,27,06,01,0.00
2016,03,27,06,02,0.00
2016,03,27,06,03,0.00
2016,03,27,06,04,0.00
2016,03,27,06,05,0.00
2016,03,27,06,06,0.00
2016,03,27,06,07,0.00
2016,03,27,06,08,0.00
2016,03,27,06,09,0.00
2016,03,27,06,10,0.00
2016,03,27,06,11,0.00
2016,03,27,06,12,0.00
2016,03,27,06,13,0.00
2016,03,27,06,14,0.00
2016,03,27,06,15,0.00
2016,03,27,06,16,0.00
2016,03,27,06,17,0.00
2016,03,27,06,18,0.00
2016,03,27,06,19,0.00
2016,03,27,06,20,0.00
2016,03,27,06,21,0.00
2016,03,27,06,22,0.00
2016,03,27,06,23,0.00
2016,03,27,06,24,0.00
2016,03,27,06,25,0.00
2016,03,27,06,26,0.00
2016,03,27,06,27,0.00
2016,03,27,06,28,0.00
2016,03,27,06,29,0.00
2016,03,27,06,30,0.00
2016,03,27,06,31,0.00
2016,03,27,06,32,0.00
2016,03,27,06,33,0.00
2016,03,27,06,34,0.00
2016,03,27,06,35,0.00
2016,03,27,06,36,0.00
2016,03,27,06,37,0.00
2016,03,27,06,38,0.00
2016,03,27,06,39,0.00
2016,03,27,06,40,0.00
2016,03,27,06,41,0.00
2016,03,27,06,42,0.00
2016,03,27,06,43,0.00
2016,03,27,06,44,0.00
2016,03,27,06,45,0.00
2016,03,27,06,46,0.00
2016,03,27,06,47,0.00
2016,03,27,06,48,0.00
2016,03,27,06,49,0.00
2016,03,27,06,50,0.00
2016,03,27,06,51,0.00
2016,03,27,06,52,0.00
2016,03,27,06,53,0.00
2016,03,27,06,54,0.00
2016,03,27,06,55,0.00
2016,03,27,06,56,0.00
2016,03,27,06,57,0.00
2016,03,27,06,58,0.00
2016,03,27,06,59,0.00
2016,03,27,07,00,0.00
2016,03,27,07,01,0.00
2016,03,27,07,02,0.00
2016,03,27,07,03,0.00
2016,03,27,07,04,0.00
2016,03,27,07,05,0.00
2016,03,27,07,06,0.00
2016,03,27,07,07,0.00
2016,03,27,07,08,0.00
2016,03,27,07,09,0.00
2016,03,27,07,10,0.00
2016,03,27,07,11,0.00
2016,03,27,07,12,0.00
2016,03,27,07,13,0.00
2016,03,27,07,14,0.00
2016,03,27,07,15,0.00
2016,03,27,07,16,0.00
2016,03,27,07,17,1.70
2016,03,27,07,18,5.00
2016,03,27,07,19,5.00
2016,03,27,07,20,5.00
2016,03,27,07,21,6.70
2016,03,27,07,22,7.20
2016,03,27,07,23,9.60
2016,03,27,07,24,13.40
2016,03,27,07,25,17.40
2016,03,27,07,26,21.40
2016,03,27,07,27,25.10
2016,03,27,07,28,29.30
2016,03,27,07,29,32.20
2016,03,27,07,30,35.90
2016,03,27,07,31,39.30
2016,03,27,07,32,40.00
2016,03,27,07,33,40.00
2016,03,27,07,34,41.40
2016,03,27,07,35,43.70
2016,03,27,07,36,43.80
2016,03,27,07,37,41.50
2016,03,27,07,38,40.00
2016,03,27,07,39,40.00
2016,03,27,07,40,39.40
2016,03,27,07,41,34.00
2016,03,27,07,42,27.00
2016,03,27,07,43,24.90
2016,03,27,07,44,22.20
2016,03,27,07,45,18.70
2016,03,27,07,46,17.10
2016,03,27,07,47,16.00
2016,03,27,07,48,16.00
2016,03,27,07,49,14.30
2016,03,27,07,50,14.00
2016,03,27,07,51,14.00
2016,03,27,07,52,14.00
2016,03,27,07,53,14.00
2016,03,27,07,54,14.00
2016,03,27,07,55,14.00
2016,03,27,07,56,14.00
2016,03,27,07,57,14.00
2016,03,27,07,58,14.00
2016,03,27,07,59,14.00
2016,03,27,08,00,14.00
2016,03,27,08,01,12.80
2016,03,27,08,02,12.00
2016,03,27,08,03,12.00
2016,03,27,08,04,12.00
2016,03,27,08,05,12.00
2016,03,27,08,06,12.00
2016,03,27,08,07,12.00
2016,03,27,08,08,11.40
2016,03,27,08,09,11.00
2016,03,27,08,10,11.00
2016,03,27,08,11,11.00
2016,03,27,08,12,11.00
2016,03,27,08,13,11.00
2016,03,27,08,14,11.00
2016,03,27,08,15,11.00
2016,03,27,08,16,9.60
2016,03,27,08,17,9.00
2016,03,27,08,18,9.00
2016,03,27,08,19,9.40
2016,03,27,08,20,11.00
2016,03,27,08,21,11.50
2016,03,27,08,22,13.20
2016,03,27,08,23,15.40
2016,03,27,08,24,16.00
2016,03,27,08,25,18.00
2016,03,27,08,26,19.50
2016,03,27,08,27,21.00
2016,03,27,08,28,21.90
2016,03,27,08,29,23.00
2016,03,27,08,30,23.00
2016,03,27,08,31,24.70
2016,03,27,08,32,25.10
2016,03,27,08,33,26.40
2016,03,27,08,34,28.00
2016,03,27,08,35,29.00
2016,03,27,08,36,30.00
2016,03,27,08,37,31.40
2016,03,27,08,38,32.00
2016,03,27,08,39,31.80
2016,03,27,08,40,30.00
2016,03,27,08,41,30.70
2016,03,27,08,42,32.40
2016,03,27,08,43,34.20
2016,03,27,08,44,35.00
2016,03,27,08,45,35.00
2016,03,27,08,46,35.00
2016,03,27,08,47,35.50
2016,03,27,08,48,39.20
2016,03,27,08,49,46.40
2016,03,27,08,50,53.20
2016,03,27,08,51,60.80
2016,03,27,08,52,66.30
2016,03,27,08,53,68.90
2016,03,27,08,54,69.60
2016,03,27,08,55,74.90
2016,03,27,08,56,83.20
2016,03,27,08,57,90.10
2016,03,27,08,58,94.40
2016,03,27,08,59,96.70
2016,03,27,09,00,95.10
2016,03,27,09,01,95.40
2016,03,27,09,02,97.00
2016,03,27,09,03,92.70
2016,03,27,09,04,81.30
2016,03,27,09,05,69.80
2016,03,27,09,06,62.70
2016,03,27,09,07,54.30
2016,03,27,09,08,54.00
2016,03,27,09,09,54.70
2016,03,27,09,10,56.00
2016,03,27,09,11,54.80
2016,03,27,09,12,53.30
2016,03,27,09,13,53.00
2016,03,27,09,14,49.10
2016,03,27,09,15,49.40
2016,03,27,09,16,52.00
2016,03,27,09,17,54.90
2016,03,27,09,18,57.20
2016,03,27,09,19,60.90
2016,03,27,09,20,62.00
2016,03,27,09,21,62.10
2016,03,27,09,22,63.90
2016,03,27,09,23,69.40
2016,03,27,09,24,78.30
2016,03,27,09,25,87.10
2016,03,27,09,26,93.60
2016,03,27,09,27,95.00
2016,03,27,09,28,98.50
2016,03,27,09,29,104.60
2016,03,27,09,30,107.70
2016,03,27,09,31,110.00
2016,03,27,09,32,112.80
2016,03,27,09,33,119.10
2016,03,27,09,34,134.80
2016,03,27,09,35,157.00
2016,03,27,09,36,174.40
2016,03,27,09,37,212.70
2016,03,27,09,38,269.00
2016,03,27,09,39,395.60
2016,03,27,09,40,485.00
2016,03,27,09,41,237.60
2016,03,27,09,42,170.90
2016,03,27,09,43,164.60
2016,03,27,09,44,163.00
2016,03,27,09,45,161.60
2016,03,27,09,46,160.00
2016,03,27,09,47,166.20
2016,03,27,09,48,174.80
2016,03,27,09,49,179.80
2016,03,27,09,50,191.90
2016,03,27,09,51,211.90
2016,03,27,09,52,223.00
2016,03,27,09,53,207.20
2016,03,27,09,54,184.60
2016,03,27,09,55,170.70
2016,03,27,09,56,162.20
2016,03,27,09,57,163.00
2016,03,27,09,58,168.30
2016,03,27,09,59,170.10
2016,03,27,10,00,170.20
2016,03,27,10,01,169.60
2016,03,27,10,02,180.60
2016,03,27,10,03,196.00
2016,03,27,10,04,210.20
2016,03,27,10,05,213.00
2016,03,27,10,06,215.00
2016,03,27,10,07,230.00
2016,03,27,10,08,256.60
2016,03,27,10,09,275.60
2016,03,27,10,10,263.60
2016,03,27,10,11,285.70
2016,03,27,10,12,336.00
2016,03,27,10,13,336.00
2016,03,27,10,14,336.00
2016,03,27,10,15,336.00
2016,03,27,10,16,257.40
2016,03,27,10,17,244.20
2016,03,27,10,18,256.20
2016,03,27,10,19,266.80
2016,03,27,10,20,319.10
2016,03,27,10,21,309.20
2016,03,27,10,22,234.90
2016,03,27,10,23,214.20
2016,03,27,10,24,198.90
2016,03,27,10,25,202.20
2016,03,27,10,26,222.60
2016,03,27,10,27,198.30
2016,03,27,10,28,205.30
2016,03,27,10,29,214.10
2016,03,27,10,30,235.70
2016,03,27,10,31,240.70
2016,03,27,10,32,243.30
2016,03,27,10,33,263.10
2016,03,27,10,34,287.50
2016,03,27,10,35,302.00
2016,03,27,10,36,302.00
2016,03,27,10,37,302.00
2016,03,27,10,38,736.50
2016,03,27,10,39,695.90
2016,03,27,10,40,490.00
2016,03,27,10,41,374.10
2016,03,27,10,42,248.80
2016,03,27,10,43,248.00
2016,03,27,10,44,242.00
2016,03,27,10,45,225.30
2016,03,27,10,46,225.20
2016,03,27,10,47,243.40
2016,03,27,10,48,275.60
2016,03,27,10,49,294.40
2016,03,27,10,50,299.00
2016,03,27,10,51,299.00
2016,03,27,10,52,366.50
2016,03,27,10,53,344.60
2016,03,27,10,54,254.10
2016,03,27,10,55,257.60
2016,03,27,10,56,259.20
2016,03,27,10,57,263.40
2016,03,27,10,58,260.60
2016,03,27,10,59,260.40
2016,03,27,11,00,282.70
2016,03,27,11,01,292.60
2016,03,27,11,02,301.00
2016,03,27,11,03,299.80
2016,03,27,11,04,296.10
2016,03,27,11,05,290.90
2016,03,27,11,06,299.20
2016,03,27,11,07,288.10
2016,03,27,11,08,291.30
2016,03,27,11,09,290.90
2016,03,27,11,10,296.10
2016,03,27,11,11,299.00
2016,03,27,11,12,506.70
2016,03,27,11,13,550.00
2016,03,27,11,14,491.30
2016,03,27,11,15,299.80
2016,03,27,11,16,299.10
2016,03,27,11,17,252.90
2016,03,27,11,18,267.10
2016,03,27,11,19,285.20
2016,03,27,11,20,299.70
2016,03,27,11,21,320.40
2016,03,27,11,22,341.30
2016,03,27,11,23,299.70
2016,03,27,11,24,299.90
2016,03,27,11,25,307.10
2016,03,27,11,26,310.70
2016,03,27,11,27,316.40
2016,03,27,11,28,336.50
2016,03,27,11,29,341.10
2016,03,27,11,30,311.90
2016,03,27,11,31,314.20
2016,03,27,11,32,320.70
2016,03,27,11,33,328.80
2016,03,27,11,34,331.30
2016,03,27,11,35,344.30
2016,03,27,11,36,335.50
2016,03,27,11,37,368.30
2016,03,27,11,38,380.50
2016,03,27,11,39,336.00
2016,03,27,11,40,328.60
2016,03,27,11,41,318.60
2016,03,27,11,42,320.40
2016,03,27,11,43,325.40
2016,03,27,11,44,337.30
2016,03,27,11,45,380.00
2016,03,27,11,46,404.00
2016,03,27,11,47,404.00
2016,03,27,11,48,404.00
2016,03,27,11,49,451.80
2016,03,27,11,50,627.60
2016,03,27,11,51,612.00
2016,03,27,11,52,480.10
2016,03,27,11,53,395.60
2016,03,27,11,54,362.60
2016,03,27,11,55,313.40
2016,03,27,11,56,293.10
2016,03,27,11,57,273.50
2016,03,27,11,58,257.70
2016,03,27,11,59,257.00
2016,03,27,12,00,283.40
2016,03,27,12,01,325.10
2016,03,27,12,02,330.30
2016,03,27,12,03,336.90
2016,03,27,12,04,363.60
2016,03,27,12,05,374.90
2016,03,27,12,06,362.00
2016,03,27,12,07,357.00
2016,03,27,12,08,371.10
2016,03,27,12,09,381.20
2016,03,27,12,10,358.50
2016,03,27,12,11,318.60
2016,03,27,12,12,317.90
2016,03,27,12,13,325.30
2016,03,27,12,14,355.20
2016,03,27,12,15,367.00
2016,03,27,12,16,885.50
2016,03,27,12,17,904.00
2016,03,27,12,18,711.60
2016,03,27,12,19,340.40
2016,03,27,12,20,327.00
2016,03,27,12,21,319.10
2016,03,27,12,22,319.70
2016,03,27,12,23,329.80
2016,03,27,12,24,331.60
2016,03,27,12,25,331.40
2016,03,27,12,26,345.10
2016,03,27,12,27,346.10
2016,03,27,12,28,333.90
2016,03,27,12,29,318.30
2016,03,27,12,30,307.10
2016,03,27,12,31,294.60
2016,03,27,12,32,283.80
2016,03,27,12,33,274.90
2016,03,27,12,34,271.00
2016,03,27,12,35,274.60
2016,03,27,12,36,286.30
2016,03,27,12,37,297.20
2016,03,27,12,38,299.00
2016,03,27,12,39,300.00
2016,03,27,12,40,306.20
2016,03,27,12,41,345.00
2016,03,27,12,42,369.00
2016,03,27,12,43,369.00
2016,03,27,12,44,360.10
2016,03,27,12,45,283.00
2016,03,27,12,46,278.90
2016,03,27,12,47,274.40
2016,03,27,12,48,286.50
2016,03,27,12,49,303.60
2016,03,27,12,50,320.40
2016,03,27,12,51,336.30
2016,03,27,12,52,324.00
2016,03,27,12,53,308.20
2016,03,27,12,54,296.60
2016,03,27,12,55,290.40
2016,03,27,12,56,293.10
2016,03,27,12,57,302.70
2016,03,27,12,58,304.00
2016,03,27,12,59,304.00
2016,03,27,13,00,304.00
2016,03,27,13,01,280.30
2016,03,27,13,02,259.20
2016,03,27,13,03,268.50
2016,03,27,13,04,273.50
2016,03,27,13,05,296.00
2016,03,27,13,06,357.00
2016,03,27,13,07,357.00
2016,03,27,13,08,357.00
2016,03,27,13,09,477.20
2016,03,27,13,10,499.20
2016,03,27,13,11,478.00
2016,03,27,13,12,543.40
2016,03,27,13,13,1084.10
2016,03,27,13,14,1061.30
2016,03,27,13,15,1042.00
2016,03,27,13,16,1042.00
2016,03,27,13,17,824.90
2016,03,27,13,18,738.00
2016,03,27,13,19,626.00
2016,03,27,13,20,622.00
2016,03,27,13,21,526.50
2016,03,27,13,22,368.70
2016,03,27,13,23,359.70
2016,03,27,13,24,349.20
2016,03,27,13,25,293.30
2016,03,27,13,26,294.60
2016,03,27,13,27,295.00
2016,03,27,13,28,296.40
2016,03,27,13,29,299.00
2016,03,27,13,30,299.00
2016,03,27,13,31,299.00
2016,03,27,13,32,299.00
2016,03,27,13,33,440.00
2016,03,27,13,34,445.00
2016,03,27,13,35,410.90
2016,03,27,13,36,302.10
2016,03,27,13,37,255.00
2016,03,27,13,38,255.00
2016,03,27,13,39,489.90
2016,03,27,13,40,508.20
2016,03,27,13,41,475.00
2016,03,27,13,42,519.00
2016,03,27,13,43,380.40
2016,03,27,13,44,253.20
2016,03,27,13,45,239.50
2016,03,27,13,46,247.00
2016,03,27,13,47,248.60
2016,03,27,13,48,252.50
2016,03,27,13,49,250.00
2016,03,27,13,50,268.60
2016,03,27,13,51,294.00
2016,03,27,13,52,404.10
2016,03,27,13,53,446.00
2016,03,27,13,54,362.00
2016,03,27,13,55,330.30
2016,03,27,13,56,222.60
2016,03,27,13,57,216.10
2016,03,27,13,58,215.20
2016,03,27,13,59,264.50
2016,03,27,14,00,332.70
2016,03,27,14,01,383.40
2016,03,27,14,02,752.20
2016,03,27,14,03,789.90
2016,03,27,14,04,867.90
2016,03,27,14,05,886.00
2016,03,27,14,06,886.00
2016,03,27,14,07,886.00
2016,03,27,14,08,886.00
2016,03,27,14,09,886.00
2016,03,27,14,10,680.60
2016,03,27,14,11,324.50
2016,03,27,14,12,339.00
2016,03,27,14,13,339.00
2016,03,27,14,14,339.00
2016,03,27,14,15,342.50
2016,03,27,14,16,369.60
2016,03,27,14,17,343.60
2016,03,27,14,18,312.60
2016,03,27,14,19,300.50
2016,03,27,14,20,282.70
2016,03,27,14,21,276.30
2016,03,27,14,22,301.10
2016,03,27,14,23,302.00
2016,03,27,14,24,302.00
2016,03,27,14,25,302.00
2016,03,27,14,26,324.50
2016,03,27,14,27,339.00
2016,03,27,14,28,339.00
2016,03,27,14,29,316.90
2016,03,27,14,30,325.00
2016,03,27,14,31,325.00
2016,03,27,14,32,325.00
2016,03,27,14,33,296.30
2016,03,27,14,34,266.00
2016,03,27,14,35,290.30
2016,03,27,14,36,363.40
2016,03,27,14,37,953.80
2016,03,27,14,38,947.00
2016,03,27,14,39,646.20
2016,03,27,14,40,278.90
2016,03,27,14,41,316.00
2016,03,27,14,42,330.00
2016,03,27,14,43,908.90
2016,03,27,14,44,916.80
2016,03,27,14,45,870.10
2016,03,27,14,46,917.70
2016,03,27,14,47,914.80
2016,03,27,14,48,910.40
2016,03,27,14,49,903.20
2016,03,27,14,50,902.00
2016,03,27,14,51,902.00
2016,03,27,14,52,712.30
2016,03,27,14,53,352.00
2016,03,27,14,54,549.60
2016,03,27,14,55,689.00
2016,03,27,14,56,308.30
2016,03,27,14,57,235.10
2016,03,27,14,58,249.00
2016,03,27,14,59,260.00
2016,03,27,15,00,323.60
2016,03,27,15,01,376.50
2016,03,27,15,02,362.00
2016,03,27,15,03,362.00
2016,03,27,15,04,717.80
2016,03,27,15,05,769.70
2016,03,27,15,06,915.10
2016,03,27,15,07,877.20
2016,03,27,15,08,872.00
2016,03,27,15,09,883.90
2016,03,27,15,10,879.00
2016,03,27,15,11,879.10
2016,03,27,15,12,883.50
2016,03,27,15,13,900.40
2016,03,27,15,14,916.00
2016,03,27,15,15,916.00
2016,03,27,15,16,462.40
2016,03,27,15,17,261.10
2016,03,27,15,18,232.90
2016,03,27,15,19,232.00
2016,03,27,15,20,213.40
2016,03,27,15,21,178.00
2016,03,27,15,22,178.00
2016,03,27,15,23,178.00
2016,03,27,15,24,178.00
2016,03,27,15,25,810.60
2016,03,27,15,26,842.10
2016,03,27,15,27,842.10
2016,03,27,15,28,793.00
2016,03,27,15,29,516.80
2016,03,27,15,30,338.00
2016,03,27,15,31,776.80
2016,03,27,15,32,847.00
2016,03,27,15,33,847.00
2016,03,27,15,34,847.00
2016,03,27,15,35,847.00
2016,03,27,15,36,847.00
2016,03,27,15,37,847.00
2016,03,27,15,38,847.00
2016,03,27,15,39,805.40
2016,03,27,15,40,789.00
2016,03,27,15,41,789.00
2016,03,27,15,42,789.00
2016,03,27,15,43,789.00
2016,03,27,15,44,789.00
2016,03,27,15,45,789.00
2016,03,27,15,46,766.30
2016,03,27,15,47,771.90
2016,03,27,15,48,783.10
2016,03,27,15,49,750.90
2016,03,27,15,50,647.30
2016,03,27,15,51,564.60
2016,03,27,15,52,548.00
2016,03,27,15,53,677.70
2016,03,27,15,54,666.10
2016,03,27,15,55,658.00
2016,03,27,15,56,654.10
2016,03,27,15,57,650.80
2016,03,27,15,58,651.40
2016,03,27,15,59,653.70
2016,03,27,16,00,615.10
2016,03,27,16,01,656.20
2016,03,27,16,02,659.20
2016,03,27,16,03,668.00
2016,03,27,16,04,675.30
2016,03,27,16,05,674.10
2016,03,27,16,06,686.10
2016,03,27,16,07,688.70
2016,03,27,16,08,684.50
2016,03,27,16,09,676.90
2016,03,27,16,10,668.20
2016,03,27,16,11,661.80
2016,03,27,16,12,661.00
2016,03,27,16,13,661.00
2016,03,27,16,14,661.00
2016,03,27,16,15,661.00
2016,03,27,16,16,485.30
2016,03,27,16,17,176.70
2016,03,27,16,18,185.00
2016,03,27,16,19,185.00
2016,03,27,16,20,615.30
2016,03,27,16,21,687.00
2016,03,27,16,22,682.50
2016,03,27,16,23,661.90
2016,03,27,16,24,650.60
2016,03,27,16,25,648.20
2016,03,27,16,26,654.80
2016,03,27,16,27,660.40
2016,03,27,16,28,658.30
2016,03,27,16,29,649.90
2016,03,27,16,30,639.60
2016,03,27,16,31,641.50
2016,03,27,16,32,649.00
2016,03,27,16,33,649.00
2016,03,27,16,34,638.20
2016,03,27,16,35,641.80
2016,03,27,16,36,549.60
2016,03,27,16,37,217.20
2016,03,27,16,38,229.00
2016,03,27,16,39,229.00
2016,03,27,16,40,229.00
2016,03,27,16,41,229.00
2016,03,27,16,42,254.20
2016,03,27,16,43,465.50
2016,03,27,16,44,438.00
2016,03,27,16,45,519.20
2016,03,27,16,46,613.00
2016,03,27,16,47,410.10
2016,03,27,16,48,329.00
2016,03,27,16,49,354.00
2016,03,27,16,50,571.00
2016,03,27,16,51,571.00
2016,03,27,16,52,546.40
2016,03,27,16,53,544.90
2016,03,27,16,54,556.70
2016,03,27,16,55,552.40
2016,03,27,16,56,553.80
2016,03,27,16,57,551.20
2016,03,27,16,58,547.70
2016,03,27,16,59,544.20
2016,03,27,17,00,539.20
2016,03,27,17,01,501.60
2016,03,27,17,02,487.00
2016,03,27,17,03,490.40
2016,03,27,17,04,524.90
2016,03,27,17,05,543.00
2016,03,27,17,06,543.00
2016,03,27,17,07,541.20
2016,03,27,17,08,535.70
2016,03,27,17,09,534.00
2016,03,27,17,10,497.20
2016,03,27,17,11,178.00
2016,03,27,17,12,178.00
2016,03,27,17,13,178.50
2016,03,27,17,14,179.00
2016,03,27,17,15,179.00
2016,03,27,17,16,179.00
2016,03,27,17,17,215.90
2016,03,27,17,18,532.40